Regional Weather Roundup
Issued by NWS

Home | Current Version | Previous Version | Graphics & Text | Print | Product List | Glossary On
Versions: 1 2 3 4 5 6 7 8 9 10 11 12 13 14 15 16 17 18 19 20 21 22 23 24 25 26 27 28 29 30 31 32 33 34 35 36 37 38 39 40 41 42 43 44 45 46 47 48 49 50
000
ASUS43 KLOT 260208
RWRIL

ILLINOIS REGIONAL WEATHER ROUNDUP
NATIONAL WEATHER SERVICE CHICAGO/ROMEOVILLE IL
800 PM CST SAT FEB 25 2017

NOTE: "FAIR" INDICATES FEW OR NO CLOUDS BELOW 12,000 FEET WITH NO
SIGNIFICANT WEATHER AND/OR OBSTRUCTIONS TO VISIBILITY.

* THESE STATIONS ARE NOT UNDER NWS QUALITY CONTROL. THEY ALSO MAY NOT
  REPORT WEATHER SUCH AS PRECIPITATION OR FOG.

ILZ001-002-007-009-015-016-024-260300-
NORTHWEST ILLINOIS

CITY           SKY/WX    TMP DP  RH WIND       PRES   REMARKS
MOLINE         CLOUDY    27  16  63 W8        30.06R WCI  19
STERLING*      CLOUDY    26  19  74 W12       30.05R WCI  16
$$

ILZ003-004-008-010-011-017-018-260300-
NORTH CENTRAL ILLINOIS

CITY           SKY/WX    TMP DP  RH WIND       PRES   REMARKS
ROCKFORD       MOCLDY    24  15  68 W6        30.03R WCI  17
FREEPORT*      CLOUDY    23  15  73 W7        30.03R WCI  15
ROCHELLE*      CLEAR     23  17  79 W3        30.03R
DE KALB*       CLOUDY    24  15  70 W9        30.01R WCI  14
PERU*          CLOUDY    26  18  70 W8        30.05R WCI  18
$$

ILZ005-006-012>014-019>023-260300-
NORTHEAST ILLINOIS

CITY           SKY/WX    TMP DP  RH WIND       PRES   REMARKS
CHICAGO-OHARE  PTCLDY    26  14  60 W9        29.99R WCI  17
CHICAGO-MIDWAY MOCLDY    25  13  60 W9        30.01R WCI  15
AURORA         CLOUDY    24  16  71 W9        30.02R WCI  14
LANSING*       CLEAR     25  17  69 W8        30.01R WCI  17
JOLIET*        PTCLDY    27  16  63 W3        30.03R
WAUKEGAN       CLEAR     23  13  65 VRB5      29.97R WCI  17
DUPAGE AIRPORT CLOUDY    23  14  68 W8        30.00R WCI  14
KANKAKEE*      CLOUDY    26  17  67 W8        30.04R WCI  18
WHEELING       CLEAR     24  13  62 W6        30.01R WCI  17
MORRIS*        CLOUDY    25  19  78 W8        30.02R WCI  16
ROMEOVILLE*    PTCLDY    25  18  74 NW9       30.02R WCI  15
NORTHERLY ISL    N/A     27  16  63 W8          N/A  WCI  19
$$

LMZ740>746-260300-
SOUTHERN LAKE MICHIGAN

STATION/POSITION SKY/WX   TEMP    WIND        PRES    VSBY  WAVE
                          AIR SEA DIR/SP/G                  HT/PER
                          (F)     (DEG/KT/KT) (MB)    (MI)  (FT/S)
HARRISON CRIB              27     280/ 13/ 15   N/A
BURNHAM HARBOR             26     260/ 13/ 15   N/A
CALUMET HARBOR             25     270/  6/  9 1015.5R
BURNS HARBOR               27     280/ 15/ 19 1016.3R
MICHIGAN CITY              27     260/ 19/ 21   N/A
$$

ILZ025>027-034>036-040-047-049-050-058-095>099-260300-
WEST-CENTRAL ILLINOIS

CITY           SKY/WX    TMP DP  RH WIND       PRES   REMARKS
QUINCY         CLEAR     30  11  45 S3        30.08F
GALESBURG*     CLOUDY    26  19  75 W5        30.07S WCI  21
MACOMB*        CLEAR     26  20  80 W3        30.10S
JACKSONVILLE*  CLEAR     28  13  51 SW3       30.10S
PITTSFIELD*    CLEAR     27  17  65 CALM      30.11S
$$

ILZ028>032-037-038-041>044-048-051>054-059>061-260300-
CENTRAL ILLINOIS

CITY           SKY/WX    TMP DP  RH WIND       PRES   REMARKS
PONTIAC        CLOUDY    28  19  67 W12       30.05S WCI  18
BLOOMINGTON    PTCLDY    26  17  68 W12       30.06R WCI  16
DECATUR        CLEAR     30  12  47 W14       30.08S WCI  19
PEORIA         PTCLDY    28  17  63 W6        30.08R WCI  22
LACON*         CLOUDY    28  18  67 W6        30.06R WCI  22
LINCOLN*       CLEAR     30  17  57 W3        30.09S
SPRINGFIELD    CLEAR     27  12  53 W7        30.10S WCI  19
TAYLORVILLE    CLEAR     27  11  51 W5        30.10R WCI  21
$$

ILZ033-039-045-046-055>057-062-063-260300-
EAST-CENTRAL ILLINOIS

CITY           SKY/WX    TMP DP  RH WIND       PRES   REMARKS
CHAMPAIGN      CLEAR     26  14  60 W9        30.06R WCI  17
RANTOUL*       CLOUDY    28  20  71 W7        30.05S WCI  21
MATTOON        CLEAR     27  15  61 W9        30.07R WCI  18
PARIS*         CLEAR     27  17  66 W9        30.08R WCI  17
$$

ILZ079-100>102-260300-
SOUTHWEST ILLINOIS

CITY           SKY/WX    TMP DP  RH WIND       PRES   REMARKS
ALTON          CLEAR     30  12  47 NW7       30.12S WCI  23
BELLEVILLE     CLEAR     31  11  43 CALM      30.12R
CAHOKIA*       CLEAR     34  10  37 W6        30.13R WCI  29
SPARTA*        CLEAR     33  13  43 CALM      30.14R
$$

ILZ064>066-069>071-074>076-080>082-084>086-088>090-092>094-260300-
SOUTH-CENTRAL ILLINOIS

CITY           SKY/WX    TMP DP  RH WIND       PRES   REMARKS
CARBONDALE     CLEAR     35  14  42 NW5       30.14R WCI  31
CAIRO*         CLEAR     38  15  39 W5        30.14R WCI  34
EFFINGHAM*     CLEAR     29  20  69 W6        30.12R WCI  23
MARION         CLEAR     32  10  40 CALM      30.14R
MT. VERNON     CLEAR     29  17  61 CALM      30.13R
CENTRALIA*     CLEAR     31  19  62 CALM      30.11R
SALEM*         CLEAR     33  15  48 NW6       30.11S WCI  27
METROPOLIS*    CLEAR     33  20  61 CALM      30.14R
$$

ILZ067-068-072-073-078-083-087-091-260300-
SOUTHEAST ILLINOIS

CITY           SKY/WX    TMP DP  RH WIND       PRES   REMARKS
LAWRENCEVILLE  CLEAR     31  19  61 W8        30.11R WCI  23
FLORA*         CLEAR     32  17  54 W6        30.11S WCI  26
FAIRFIELD*     CLEAR     32  17  53 CALM      30.11S
HARRISBURG*    CLEAR     33  19  57 NW5       30.14R WCI  28
ROBINSON*      CLEAR     29  19  65 W8        30.11R WCI  21
CARMI*         CLEAR     29  19  66 NW6       30.12R WCI  23
$$

ABBREVIATIONS USED IN REMARKS
   TC - TEMPERATURE IN CELSIUS
  WCI - WIND CHILL INDEX
   HX - HEAT INDEX
  VSB - VISIBILITY
$$




USA.gov is the U.S. government's official web portal to all federal, state and local government web resources and services.